Regional Weather Roundup
Issued by NWS Mobile, AL

Home | Current Version | Previous Version | Text Only | Print | Product List | Glossary On
Versions: 1 2 3 4 5 6 7 8 9 10 11 12 13 14 15 16 17 18 19 20 21 22 23 24 25 26 27
000
ASUS44 KMOB 250012
RWRMOB
REGIONAL WEATHER ROUNDUP
NATIONAL WEATHER SERVICE MOBILE AL
700 PM CDT FRI MAR 24 2017

NOTE: "FAIR" INDICATES FEW OR NO CLOUDS BELOW 12,000 FEET WITH NO
      SIGNIFICANT WEATHER AND/OR OBSTRUCTIONS TO VISIBILITY.

  * THESE STATIONS ARE PART OF THE UNIVERSITY OF SOUTH ALABAMA
    MESONET AND ARE NOT UNDER NWS OR FAA QUALITY CONTROL.

ALZ061>064-250100-
COASTAL ALABAMA

CITY           SKY/WX    TMP DP  RH WIND       PRES   REMARKS
MOBILE REG APT CLOUDY    70  61  73 SE14      30.23S
6HR MIN TEMP:  70; 6HR MAX TEMP:  76;

BROOKLEY FIELD CLOUDY    71  64  78 SE16      30.24S
6HR MIN TEMP:  71; 6HR MAX TEMP:  74;

USA CAMPUS*      N/A     70  63  78 SE6       30.23R
DOG RIVER*       N/A     68  63  83 SE12      31.04R


CITY           SKY/WX    TMP DP  RH WIND       PRES   REMARKS
GULF SHORES    CLOUDY    67  65  93 E14G23    30.23F

$$

ALZ051>060-250100-
INTERIOR SOUTHWEST AND SOUTH CENTRAL ALABAMA

CITY           SKY/WX    TMP DP  RH WIND       PRES   REMARKS
GREENVILLE     CLOUDY    73  53  49 SE3       30.22S
6HR MIN TEMP:  73; 6HR MAX TEMP:  78;

EVERGREEN      CLOUDY    70  56  61 S9        30.24S
6HR MIN TEMP:  70; 6HR MAX TEMP:  78;

ATMORE*          N/A     66  59  77 SE8       30.25S
ANDALUSIA/OPP  PTCLDY    73  55  53 SW8       30.24R
6HR MIN TEMP:  73; 6HR MAX TEMP:  83;

ANDALUSIA*       N/A     70  55  60 S7        30.24R
FLORALA APT    MOCLDY    69  54  58 SW14      30.27R
6HR MIN TEMP:  69; 6HR MAX TEMP:  80;

FLORALA*         N/A     68  55  64 S2        31.04R

$$

FLZ001>006-250100-
WESTERN FLORIDA PANHANDLE

CITY           SKY/WX    TMP DP  RH WIND       PRES   REMARKS
PENSACOLA      CLOUDY    69  60  73 SE13      30.25S
6HR MIN TEMP:  69; 6HR MAX TEMP:  73;

NAS PENSACOLA  MOCLDY    68  61  78 SE13      30.24F
6HR MIN TEMP:  68; 6HR MAX TEMP:  73;

MILTON         CLOUDY    66  58  75 SE10      30.25S
6HR MIN TEMP:  66; 6HR MAX TEMP:  76;

WHTNG S FIELD  CLOUDY    69  60  73 S13       30.25S
6HR MIN TEMP:  69; 6HR MAX TEMP:  78;



CITY           SKY/WX    TMP DP  RH WIND       PRES   REMARKS
JAY*             N/A     66  57  72 S7        30.25S
DUKE FIELD     MOCLDY    68  53  59 S10       30.26S
CRESTVIEW      MOCLDY    68  54  60 S6        30.27S
6HR MIN TEMP:  68; 6HR MAX TEMP:  79;

VALPARAISO     MOCLDY    69  55  62 S12       30.25F
6HR MIN TEMP:  69; 6HR MAX TEMP:  75;

DESTIN         PTCLDY    71  61  70 S9        30.25S
6HR MIN TEMP:  71; 6HR MAX TEMP:  76;


$$

MSZ076-079-250100-
INTERIOR SOUTHEAST MISSISSIPPI

CITY           SKY/WX    TMP DP  RH WIND       PRES   REMARKS
LEAKESVILLE*   NOT AVBL
AGRICOLA*        N/A     68  63  83 CALM      30.19F

$$

MARINE OBSERVATIONS

STATION/POSITION TIME  TEMP    WIND        PRES    WAVE
                       AIR SEA DIR/SP/G            HT/PER
                 (UTC) (F)     (DEG/KT/KT) (MB)    (FT/S)
PASCAGOULA       2348   70     130/ 13/ 16 1022.8F
PETIT BOIS ISLND 2348   69     140/ 10/ 13 1023.8S
GRAND BAY        2245   71     120/ 16     1024.0S
KATRINA CUT      2330          130/ 16     1022.7F
CEDAR POINT      2330   69     130/ 15     1023.0F
E DAUPHIN ISLAND 2300   69     110/ 17/ 19 1023.0S
MIDDLE BAY LIGHT 2330   69     120/ 21     1022.7F
USCG MOBILE BAY  2348   69 70  130/ 10/ 14 1024.1F
STATE DOCKS      2348   69 65              1023.5F
MEAHER PARK      2330   70     120/  9     1023.0F
WEEKS BAY        2245   71                   N/A
FORT MORGAN      2348   69     120/ 20/ 22   N/A
12 S ORANGE BCH  2350   69 69  120/ 16/ 17 1023.2F   6/ 7
PENSACOLA BAY    2348   69 69  130/  3/  8 1024.5F
64 S DAUPHIN ISL 2350   71 73  120/ 17/ 21 1022.6R   9/ 8
67 S FORT MORGAN 2330   70     120/ 19     1022.7R

$$

SELECTED LOCATIONS ACROSS THE REGION

CITY           SKY/WX    TMP DP  RH WIND       PRES   REMARKS
NEW ORLEANS    CLOUDY    73  65  75 SE18      30.12F
GULFPORT       CLOUDY    71  66  84 SE17      30.18F
PASCAGOULA AP  LGT RAIN  69  63  81 SE13G18   30.21F
PASCAGOULA*    NOT AVBL
HATTIESBURG    CLOUDY    71  62  73 SE17      30.17S
LAUREL         CLOUDY    72  59  64 SE16      30.18S
MERIDIAN       MOCLDY    72  61  68 SE17      30.16F
JACKSON        CLOUDY    74  60  61 SE21G30   30.05F
MONTGOMERY     CLOUDY    75  52  44 SE5       30.23S
TROY           CLOUDY    72  53  51 SE3       30.24S
ASHFORD*         N/A     70  55  60 S7        30.24R
DOTHAN         MOCLDY    74  53  48 E6        30.27S
PANAMA CITY    CLEAR     68  55  63 S8        30.24F

$$





USA.gov is the U.S. government's official web portal to all federal, state and local government web resources and services.